Showing default

INTELSAT 10 (PAS 10), 26766

Orbit data source: Space-Track

INTELSAT 10 (PAS 10), 26766 is a payload satellite owned by Panamsat (US) in GEO that was launched on Tue, 15 May 2001 UTC via a PROTON-K/DM-2M launch vehicle from the Tyuratam Missile And Space Complex (TTMTR). Payload-class satellites include a variety of spacecraft equipped with specific instruments for various scientific and technological missions. These include communications satellites like Starlink; space stations such as the ISS; scientific satellites like the Hubble; Earth observation satellites from companies like Planet Labs, Umbra, and HawkEye 360; GPS; miniature CubeSats for education and research; and military/defense satellites.

Not visible in the next 10 days
Identifier
26766, 2001-019A
Orbit
GEO
Country
Flag of USUS
Related business
Manufacturer
Boeing/ES
Mission
Operational Commercial Communications
Bus & Motor
HS-601HP, R-4D-11-300
Mass
3,772 kg wet, ~2,000 kg dry
Launch date (UTC)
2001-05-15 (24 years ago)
Launch vehicle
PROTON-K/DM-2M
Launch site
Tyuratam Missile And Space Complex (TTMTR)
Object type
Payload
Rocket body
Debris
Shape & HBR
Box + 2 Pan, 13.0 m
Radar Cross Section
31.072 m², Large (>1 m²)

Expand to show TLE details & history
Last TLE update: 17 hours ago

TLE from 17 hours ago
0 INTELSAT 10 (PAS 10)
1 26766U 01019A   25258.21781128 -.00000278  00000-0  00000-0 0  9998
2 26766   8.4132  62.0403 0003421 182.4584 347.9677  0.99080288 42850
Epoch: 2025-09-15T05:13Z
TLE epoch observation values (Epoch: 2025-09-15T05:13:38.894Z)
Latitude
1.41202°
Longitude
159.71529°
Altitude
36,109.128 km
Speed
3.064 km/s
True Right ascension
15h 30m 12s
True Declination
1° 24' 38"
Sunlit
Object was in daylight at epoch
Visualization orbit readout
Latitude
Unknown
Longitude
Unknown
Altitude
Unknown
Speed
Unknown
Apparent Right ascension
Unknown
Apparent Declination
Unknown
Sunlit
N/A
Visualization observer readout
Local Sidereal Time
15:18:13
Azimuth
Unknown
Elevation
Unknown
Doppler factor
Unknown
Orbital elements
Apogee altitude
36,139.527 km
Perigee altitude
36,110.446 km
Semi-major axis
42,503.124 km
Eccentricity
0.00034
Inclination
8.4132°
RAAN
62.0403°
Arg. of periapsis
182.4584°
True anomaly
347.95952°
Mean anomaly
347.9677°
Eccentric anomaly
347.96361°
Mean motion
0.24769 °/min
Orbital period
1,453.42 mins
BSTAR
0
Loading maneuver chart data...
Computing Atmospheric mass density...
Loading historical data...
Loading historical data...
Loading historical data...
Loading historical data...
Loading historical data...
Loading historical data...
Loading historical data...
Other satellites on launch #19 in the year 2001 (2001-05-15 UTC)

Documentation

Showing up to 5 results
|